www.pogodaiklimat.ru

Погода и климат >> Архив погоды >> Аргентина >> Вилла де Мария дель Рио Секо


ПОГОДА в Вилла де Мария дель Рио Секо

  • Прогноз погоды в Вилла де Мария дель Рио Секо
  • Монитор погоды в Вилла де Мария дель Рио Секо

АРХИВ ПОГОДЫ в Вилла де Мария дель Рио Секо

Время (UTC), дата Ветер
(напр.,м/с)
 
Видим.   Явления Облачность Т
(С)
Тd
(С)
f
(%)
Тe
(С)
Тes
(С)
Комфортность P
(гПа)
Po
(гПа)
Тmin
(С)
Tmax
(С)
R
(мм)
R24
(мм)
S
(см)
06 17.03 ЮЗ 1 17 км зарница {ливн. осадки} 9/9 900 м
[St As op]
+18.8 +17.2 90 +21 +21 комфорт 1014.0 974.9 0.0
09 17.03 Ю 3 1000 м дождь {ливн. осадки} 10/8 900 м
[Frnb As op]
+16.0 +15.7 98 +16 +16 1015.1 975.7
12 17.03 штиль 0 15 км {дождь} 10/5 900 м
[Sc As op]
+16.4 +16.1 98 +16 +17 1015.1 975.6 +15.9 +21.0 21
15 17.03 ЮВ 1 17 км 9/8 900 м
[Sc diur, vesp As op Cs]
+18.2 +16.6 90 +20 +22 1013.6 974.1
18 17.03 ЮВ 1 17 км 6/5 900 м
[Sc diur, vesp Cs]
+22.8 +15.7 64 +27 +35 душно 1011.1 972.1
21 17.03 ЮВ 1 17 км 3/1 900 м
[Sc diur, vesp Ci fib]
+23.0 +16.7 68 +28 +30 душно 1010.5 971.3
00 18.03 В 1 17 км ясно +18.0 +16.4 90 +19 +19 1012.2 972.6 +16.6 +24.2
03 18.03 штиль 0 17 км ясно +15.2 +14.9 98 +15 +15 1013.4 973.7
06 18.03 штиль 0 17 км ясно +13.8 +13.1 96 +13 +13 1012.1 972.6
09 18.03 штиль 0 17 км ясно +15.6 +11.7 78 +15 +15 1011.7 972.4
12 18.03 штиль 0 20 км ясно +18.0 +16.5 91 +18 +22 1012.1 972.6 +13.1 +18.0
15 18.03 В 1 20 км 1/1 1200 м
[Cu hum]
+24.2 +17.7 67 +28 +44 душно 1012.3 973.0
18 18.03 В 1 18 км 1/1 1200 м
[Cu hum]
+26.8 +16.5 53 +30 +44 душно 1010.1 971.0
21 18.03 В 1 18 км ясно +26.2 +15.5 52 +29 +31 жарко 1008.1 969.2
00 19.03 штиль 0 19 км 3/0
[Ac trans]
+19.3 +17.2 88 +21 +21 комфорт 1009.1 969.8 +18.0 +27.6
03 19.03 штиль 0 19 км ясно +16.2 +15.0 93 +16 +16 1010.0 970.9
06 19.03 штиль 0 19 км ясно +15.2 +14.3 94 +15 +15 1011.1 972.0
09 19.03 штиль 0 19 км ясно +14.4 +12.8 90 +14 +14 1012.3 973.0
12 19.03 штиль 0 19 км 1/0
[Ac trans]
+18.0 +16.4 90 +18 +22 1013.3 973.8 +13.1 +19.3
15 19.03 СВ 3 18 км 10/4 1200 м
[Sc diur, vesp Ac cuf]
+26.0 +19.0 65 +31 +33 очень
душно
1013.6 974.4
18 19.03 Ю 7 17 км {дождь} 10/9 900 м
[St As op]
+18.0 +14.7 81 +17 +17 1015.9 976.1 0.5
21 19.03 Ю 7 17 км 10/9 900 м
[St As op]
+16.6 +12.4 76 +15 +15 1016.8 976.9
00 20.03 Ю 7 17 км 10/10 900 м
[St]
+15.6 +11.5 77 +14 +14 1020.6 980.6 +15.6 +26.1
03 20.03 Ю 4 18 км 10/10 1050 м
[Sc]
+14.4 +11.7 84 +13 +13 1022.4 982.8
06 20.03 Ю 3 4500 м слаб. морось 10/8 900 м
[St As op]
+13.2 +11.9 92 +12 +12 1023.5 983.2 0.0
09 20.03 Ю 3 17 км {морось} 10/10 840 м
[St]
+13.0 +11.5 91 +12 +12 1022.7 982.4
12 20.03 штиль 0 17 км 10/10 750 м
[St]
+14.0 +12.2 89 +14 +14 1024.5 984.1 +12.9 +15.6 0.0
15 20.03 В 3 17 км 9/9 750 м
[St]
+17.2 +11.9 71 +17 +19 1024.5 984.2
18 20.03 В 3 17 км 6/5 750 м
[Cu med, cong Ac cuf]
+19.2 +12.3 64 +21 +26 комфорт 1022.3 982.2
21 20.03 В 3 17 км 9/5 750 м
[Cu med, cong Ac As]
+18.8 +11.2 61 +20 +20 1022.0 981.8
00 21.03 ЮВ 1 17 км 10/10 570 м
[Sc]
+15.5 +11.0 75 +16 +16 1023.1 982.8 +14.0 +19.7
03 21.03 штиль 0 10 км слаб. морось 10/10 600 м
[Sc]
+15.1 +12.5 84 +15 +15 1024.7 984.5
06 21.03 штиль 0 18 км {морось} 9/8 900 м
[Sc Ac trans]
+13.4 +12.3 93 +13 +13 1024.5 984.4 0.0
09 21.03 штиль 0 17 км 9/8 900 м
[Sc Ac trans]
+13.0 +11.2 89 +12 +12 1023.7 983.4
12 21.03 штиль 0 17 км 10/6 900 м
[Frnb Ac trans]
+13.4 +11.8 90 +13 +14 1023.3 982.9 +12.1 +15.5 0.0
15 21.03 В 3 17 км 8/8 900 м
[Sc]
+17.5 +12.3 72 +18 +20 1022.5 982.4
18 21.03 В 3 17 км 9/6 1050 м
[Cu med, cong Ac As]
+20.4 +11.7 57 +23 +25 комфорт 1018.7 978.8
21 21.03 СВ 3 17 км 6/5 750 м
[Sc diur, vesp Ac As Cc]
+19.8 +12.2 62 +22 +22 комфорт 1017.7 977.8
00 22.03 штиль 0 17 км ясно +13.5 +10.7 83 +13 +13 1018.2 977.8 +13.4 +21.0
03 22.03 штиль 0 17 км 10/10 570 м
[Sc]
+11.8 +10.3 91 +11 +11 1019.0 978.8
06 22.03 штиль 0 17 км 9/9 900 м
[Sc]
+14.4 +12.6 89 +14 +14 1018.1 978.2
09 22.03 штиль 0 17 км 10/10 900 м
[Sc]
+14.2 +13.5 96 +14 +14 1018.0 978.1
12 22.03 штиль 0 17 км 10/10 600 м
[Sc]
+15.6 +14.2 91 +15 +15 1019.3 979.0 +11.1 +15.6
15 22.03 В 3 17 км 9/9 840 м
[Sc]
+20.4 +13.9 66 +23 +25 комфорт 1018.6 978.6
18 22.03 СЗ 1 17 км 10/10 900 м
[Sc]
+23.4 +14.2 56 +27 +27 душно 1016.8 977.3
21 22.03 СВ 1 17 км 10/10 900 м
[Sc]
+22.4 +15.3 64 +26 +26 жарко 1016.4 976.8
00 23.03 штиль 0 17 км 6/6 900 м
[Sc]
+19.0 +16.8 87 +20 +20 1017.8 978.0 +19.0 +24.0
03 23.03 штиль 0 17 км 9/4 900 м
[Sc Ac trans]
+16.5 +15.3 93 +16 +16 1017.8 978.2
06 23.03 штиль 0 17 км ясно +13.6 +12.7 94 +13 +13 1016.4 976.8
09 23.03 штиль 0 17 км 4/0
[Ac und]
+13.2 +12.1 93 +13 +13 1016.3 976.6
12 23.03 С 4 18 км ясно +20.0 +13.6 67 +22 +24 комфорт 1015.9 976.5 +12.3 +20.0
15 23.03 С 4 18 км 6/6 1050 м
[Cu hum]
+25.7 +14.9 51 +28 +32 жарко 1014.9 975.7
18 23.03 С 7 18 км 6/6 1200 м
[Sc diur, vesp]
+27.0 +15.6 50 +30 +32 душно 1012.1 972.9
21 23.03 С 4 17 км 1/0
[Ac As]
+28.0 +15.7 47 +31 +32 душно 1011.0 971.8
00 24.03 штиль 0 17 км ясно +20.4 +17.6 84 +24 +24 комфорт 1012.2 973.0 +20.0 +29.0

 

Местоположение метеостанции Вилла де Мария дель Рио Секо (Аргентина): широта -29.90 долгота -63.68 высота над уровнем моря 341 м.

В архиве по умолчанию представлена погода в Вилла де Мария дель Рио Секо за последнюю неделю. Архивные данные за месяц целиком и за предыдущие месяцы, начиная с января 2011 года, Вы можете получить, выбрав интересующий диапазон дат из раскрывающегося списка и нажав кнопку "Ввод!".


*Определитесь, кто Вы:
робот инопланетянин человек

Внимание! Время в таблицах - всемирное. Для получения местного времени необходимо прибавить поправку, которая равна -3 ч.

Смотрите также архив погоды в соседних городах и на ближайших метеорологических станциях:

Погода в Кордове (Аргентина) (165 км)
Погода в Сересе (Аргентина) (167 км)
Погода в Пиларе (Аргентина) (197 км)
Погода в Сантьяго-дель-Эстеро (Аргентина) (246 км)
Погода в Сан-Фернандо-дель-Валье-де-Катамарке (Аргентина) (248 км)
Погода в Чамикале (Аргентина) (255 км)
Погода в Вилла Долорес (Аргентина) (267 км)
Погода в Ла-Риохе (Аргентина) (308 км)
Погода в Санта-Фе (Аргентина) (339 км)
Погода в Маркос Хуарес (Аргентина) (344 км)

Пояснения к столбцам:

Ветер - указаны скорость ветра в м/с - средняя за 10 мин, порывы в срок и между сроками (в фигурных скобках) и направление, откуда дует ветер: С - северный, СВ - северо-восточный, В - восточный, ЮВ - юго-восточный, Ю - южный, ЮЗ - юго-западный, З - западный, СЗ - северо-западный.
Видимость - горизонтальная дальность видимости в метрах или километрах. При видимости от 1 до 10 км при отсутствии осадков обычно наблюдается дымка, при ухудшении видимости до 1 км и менее - туман. В сухую погоду видимость может ухудшаться дымом, пылью или мглою.
Явления - указаны атмосферные явления, наблюдавшиеся в срок или в последний час перед сроком; фигурными скобками обозначены явления, наблюдавшиеся между сроками (за 1-3 часа до срока); квадратными скобками обозначены град или гололедные отложения с указанием их диаметра в мм.
Облачность - указаны через наклонную черту общая и нижняя облачность в баллах и высота нижней границы облаков в метрах; квадратными скобками обозначены формы облаков: Ci - перистые, Cs - перисто-слоистые, Cc - перисто-кучевые, Ac - высококучевые, As - высокослоистые, Sc - слоисто-кучевые, Ns - слоисто-дождевые, Cu - кучевые, Cb - кучево-дождевые. Подробнее классификацию облаков см. в Атласе облаков (PDF).
T - Температура воздуха - температура, измеренная на высоте 2 м над землей.
Td - Температура точки росы - температура, при понижении до которой содержащийся в воздухе водяной пар достигнет насыщения.
f - Относительная влажность воздуха - влажноcть воздуха, измеренная на высоте 2 м над землей.
Te - Эффективная температура - температура, которую ощущает одетый по сезону человек в тени. Характеристика душности погоды. При расчете учитывается влияние влажности воздуха и скорости ветра на теплоощущения человека.
Tes - Эффективная температура на солнце - температура, которую ощущает человек, с поправкой на солнечный нагрев. Характеристика знойности погоды. Зависит от высоты солнца над горизонтом, облачности и скорости ветра. Ночью, в пасмурную погоду, а также при ветре 12 м/с и более поправка равна нулю.
P - Атмосферное давление - приведенное к уровню моря атмосферное давление.
Po - Атмосферное давление - измеренное на уровне метеостанции атмосферное давление.
Tmin - Минимальная температура - минимум температуры воздуха на высоте 2 м над землей.
Tmax - Максимальная температура - максимум температуры воздуха на высоте 2 м над землей.
R - Количество осадков - Количество выпавших осадков за период времени, мм. При наведении курсора мыши на число - период времени, за который выпало указанное количество осадков.
R24 - Количество осадков - Количество выпавших осадков за 24 часа, мм.
S - Снежный покров - Высота снежного покрова, см. При наведении курсора мыши на число - состояние снежного покрова и степень покрытия местности в баллах.